{"data":{"norad_id":61621,"epoch":"2026-05-24T13:34:21.745344Z","epoch_age_seconds":122465,"freshness":"FRESH","line1":"1 61621U 24191A   26144.56552946  .00000075  00000+0  12236-4 0  9991","line2":"2 61621  43.0030  85.7386 0001117 269.4330  90.6393 15.27583486 89895","mean_motion":15.27583486,"eccentricity":0.0001117,"inclination_deg":43.003,"raan_deg":85.7386,"arg_perigee_deg":269.433,"mean_anomaly_deg":90.6393,"bstar":1.2236e-5,"rev_number":8989,"period_min":94.266533593569,"perigee_km":482.27226440045,"apogee_km":483.80505104239,"semimajor_km":6861.1756577214,"source":"CELESTRAK","updated_at":"2026-05-25T13:38:19.406237Z"}}